Groton, CT

4:27 PM EST on January 21, 2018 (GMT -0500)
Groton-New London

Weather History for KGON - March, 2014

Change the Weather History Date:

Monday, March 3, 2014

  Actual Average Record
Temperature  
Mean Temperature 23 °F -  
Max Temperature 30 °F 44 °F 62 °F (1991)
Min Temperature 14 °F 26 °F 7 °F (1962)
Degree Days  
Heating Degree Days 42    
Moisture  
Dew Point 2 °F    
Average Humidity 43    
Maximum Humidity 58    
Minimum Humidity 34    
Precipitation  
Precipitation 0.00 in - - ()
Sea Level Pressure  
Sea Level Pressure 30.14 in    
Wind  
Wind Speed 13 mph (NNW)    
Max Wind Speed 20 mph    
Max Gust Speed 29 mph    
Visibility 9 miles    
Events Snow    
Averages and records for this station are not official NWS values.
T = Trace of Precipitation, MM = Missing Value Source: NWS Daily Summary

Daily Weather History Graph

Daily Weather History Graph

Search for Another Location

Airport or City:

Trip Planner

Search our weather history database for the weather conditions in past years. The results will help you decide how hot, cold, wet, or windy it might be!

Date:

Astronomy

Mar. 03, 2014 Rise Set
Actual Time 6:19 AM EST 5:41 PM EST
Civil Twilight 5:51 AM EST 6:08 PM EST
Nautical Twilight 5:19 AM EST 6:40 PM EST
Astronomical Twilight 4:47 AM EST 7:13 PM EST
Moon 7:24 AM EST (3/3) 8:43 PM EST (3/3)
Length of Visible Light 12h 17m
Length of Day
11h 21m
Waxing Crescent, 8% of the Moon is Illuminated
Mar 3
Waxing Crescent
Mar 8
First Quarter
Mar 16
Full
Mar 23
Last Quarter
Mar 30
New

Hourly Weather History & Observations

Time (EST) Temp. Windchill Dew Point Humidity Pressure Visibility Wind Dir Wind Speed Gust Speed Precip Events Conditions
12:56 AM 30.0 °F 20.0 °F 12.0 °F 47% 30.00 in 10.0 mi NNW 12.7 mph - N/A   Overcast
1:56 AM 28.9 °F 18.2 °F 10.9 °F 47% 29.98 in 10.0 mi NNW 13.8 mph 21.9 mph N/A   Overcast
2:56 AM 28.0 °F 16.5 °F 10.0 °F 47% 29.99 in 10.0 mi NNW 15.0 mph 21.9 mph N/A   Overcast
3:56 AM 25.0 °F 10.9 °F 10.9 °F 55% 29.99 in 9.0 mi NNW 19.6 mph 28.8 mph N/A   Overcast
4:56 AM 23.0 °F 8.3 °F 3.9 °F 44% 30.03 in 10.0 mi NNW 19.6 mph - N/A   Overcast
5:56 AM 21.9 °F 7.8 °F 3.0 °F 44% 30.06 in 10.0 mi North 17.3 mph 25.3 mph N/A   Overcast
6:34 AM 19.4 °F 4.5 °F 6.8 °F 58% 30.07 in 3.0 mi North 17.3 mph 27.6 mph 0.00 in Snow Light Snow
6:56 AM 19.9 °F 7.9 °F 3.9 °F 50% 30.09 in 7.0 mi NNW 11.5 mph - 0.00 in   Overcast
7:56 AM 21.0 °F 6.6 °F 1.0 °F 42% 30.10 in 10.0 mi North 17.3 mph 25.3 mph N/A   Overcast
8:56 AM 21.0 °F 8.1 °F 1.9 °F 44% 30.11 in 10.0 mi North 13.8 mph 24.2 mph N/A   Overcast
9:56 AM 21.9 °F 11.7 °F 3.0 °F 44% 30.12 in 10.0 mi NNW 9.2 mph - N/A   Overcast
10:56 AM 23.0 °F 10.6 °F 1.9 °F 40% 30.13 in 10.0 mi North 13.8 mph - N/A   Mostly Cloudy
11:56 AM 21.9 °F 9.2 °F 1.9 °F 42% 30.13 in 9.0 mi NNW 13.8 mph 20.7 mph N/A   Scattered Clouds
12:56 PM 23.0 °F 11.7 °F 1.9 °F 40% 30.12 in 10.0 mi NNW 11.5 mph - N/A   Overcast
1:56 PM 21.9 °F 8.2 °F -0.0 °F 38% 30.12 in 10.0 mi NNW 16.1 mph - N/A   Clear
2:56 PM 23.0 °F 11.7 °F -0.9 °F 35% 30.14 in 9.0 mi NNW 11.5 mph - N/A   Clear
3:56 PM 23.0 °F 10.6 °F -2.0 °F 34% 30.16 in 10.0 mi North 13.8 mph - N/A   Clear
4:56 PM 21.9 °F 12.5 °F -2.0 °F 35% 30.18 in 10.0 mi NNW 8.1 mph - N/A   Clear
5:56 PM 21.0 °F 9.9 °F -0.9 °F 38% 30.21 in 9.0 mi NNW 10.4 mph - N/A   Clear
6:56 PM 19.9 °F 10.1 °F -0.9 °F 40% 30.25 in 10.0 mi NNW 8.1 mph - N/A   Clear
7:56 PM 18.0 °F 8.7 °F -0.9 °F 44% 30.26 in 10.0 mi NNW 6.9 mph - N/A   Clear
8:56 PM 17.1 °F 6.6 °F -2.0 °F 43% 30.28 in 10.0 mi NNW 8.1 mph - N/A   Clear
9:56 PM 17.1 °F 5.8 °F -2.9 °F 41% 30.29 in 10.0 mi NNW 9.2 mph - N/A   Clear
10:56 PM 16.0 °F 6.3 °F -2.0 °F 45% 30.31 in 10.0 mi North 6.9 mph - N/A   Clear
11:56 PM 14.0 °F 5.1 °F -2.0 °F 49% 30.30 in 10.0 mi North 5.8 mph - N/A   Clear